DateTimeUTC,F1_A11,F1_S11,BsB_S11,BsG_S11,BsR_S11,BbsB_S11,BbsG_S11,BbsR_S11,BaB_A11,BaG_A11,BaR_A11,Tu_S11,T_S11,Uu_S11,U_S11,P_S11,T1_A11
2021-08-04T00:00:00Z,00000200,20000000,,,,,,,-000.31,-000.44,-000.27,19.1,26.2,06.0,03.9,0672.2,31.0
2021-08-04T00:01:00Z,00000200,20000000,,,,,,,-000.05,0000.28,0000.17,19.1,26.2,05.7,03.7,0672.2,31.0
2021-08-04T00:02:00Z,00000200,20000000,,,,,,,0000.22,-000.13,0000.05,19.1,26.2,05.7,03.7,0672.2,31.0
2021-08-04T00:03:00Z,00000200,60000000,,,,,,,0000.73,0000.81,0000.21,19.1,26.2,05.7,03.7,0672.2,31.0
2021-08-04T00:04:00Z,00000200,40000000,0004.31,0002.93,0001.53,0000.64,0000.39,0000.42,0000.72,0000.39,0000.45,19.2,26.0,05.6,03.7,0673.1,31.0
2021-08-04T00:05:00Z,00000200,00000000,0004.32,0002.66,0001.50,0000.22,0000.55,0000.26,0000.26,0000.42,0000.01,19.2,25.9,05.4,03.6,0673.2,31.1
2021-08-04T00:06:00Z,00000200,00000000,0003.89,0002.76,0001.58,-000.13,0000.53,0000.19,0000.58,0000.50,0000.46,19.2,25.9,05.2,03.5,0673.2,31.0
2021-08-04T00:07:00Z,00000200,00000000,0004.01,0002.60,0001.46,0000.54,0000.43,0000.22,0000.70,0000.67,0000.36,19.2,25.9,05.0,03.3,0673.2,31.0
2021-08-04T00:08:00Z,00000200,00000000,0003.96,0002.97,0001.81,0000.97,0000.36,-000.04,0000.30,0000.26,0000.25,19.2,25.9,04.9,03.2,0673.2,31.1
2021-08-04T00:09:00Z,00000200,00000000,0005.10,0003.50,0001.75,0000.59,0000.39,0000.46,0001.73,0001.18,0000.88,19.1,25.9,04.7,03.1,0673.2,31.1
2021-08-04T00:10:00Z,00000200,00000000,0004.53,0003.06,0001.60,0000.33,0000.62,0000.13,-000.19,-000.12,-000.05,19.1,25.8,04.6,03.0,0673.2,31.0
2021-08-04T00:11:00Z,00000200,00000000,0004.56,0002.80,0001.13,0000.64,0000.77,0000.45,0000.95,0000.91,0000.58,19.1,25.8,04.3,02.9,0673.2,31.0
2021-08-04T00:12:00Z,00000200,00000000,0002.44,0001.32,0000.39,0000.43,0000.25,0000.24,0000.84,0000.70,0000.55,19.1,25.8,04.4,03.0,0673.1,31.0
2021-08-04T00:13:00Z,00000200,00000000,0002.61,0001.36,0000.96,0000.33,0000.26,0000.22,0000.10,0000.28,-000.04,19.1,25.8,04.3,02.8,0673.1,31.0
2021-08-04T00:14:00Z,00000200,00000000,0000.61,0000.87,0000.61,0000.18,0000.51,0000.45,0000.51,0000.49,0000.72,19.1,25.8,04.4,02.9,0673.1,31.0
2021-08-04T00:15:00Z,00000200,00000000,0000.59,0000.62,0000.48,0000.76,0000.36,0000.04,0001.29,0000.85,0000.34,19.1,25.8,04.3,02.9,0673.1,31.0
2021-08-04T00:16:00Z,00000200,00000000,0000.91,0000.89,0000.10,-000.23,0000.27,-000.06,-000.33,0000.37,0000.36,19.1,25.7,04.7,03.1,0673.1,31.0
2021-08-04T00:17:00Z,00000200,00000000,0000.42,0000.15,0000.44,-000.28,0000.15,-000.08,0000.01,-000.53,-000.19,19.0,25.7,04.5,03.0,0673.0,31.0
2021-08-04T00:18:00Z,00000200,00000000,0001.17,0000.33,-000.10,0000.34,0000.20,0000.16,0001.77,0001.72,0001.52,19.1,25.7,04.5,03.0,0673.0,31.0
2021-08-04T00:19:00Z,00000200,00000000,0000.24,0000.43,0000.02,0000.05,0000.24,-000.11,-001.72,-001.58,-001.49,19.0,25.7,04.7,03.1,0673.0,31.0
2021-08-04T00:20:00Z,00000200,00000000,0001.13,0000.07,0000.17,0000.10,0000.01,0000.05,0000.05,0000.12,-000.17,19.0,25.7,04.7,03.1,0673.0,31.0
2021-08-04T00:21:00Z,00000200,00000000,0000.38,-000.15,0000.15,0000.28,0000.35,-000.27,0000.00,-000.11,0000.27,19.0,25.7,04.4,02.9,0673.0,31.0
2021-08-04T00:22:00Z,00000200,00000000,0000.34,0000.45,0000.25,0000.26,0000.31,0000.18,0000.11,-000.22,-000.27,19.0,25.7,04.3,02.9,0673.0,31.1
2021-08-04T00:23:00Z,00000200,00000000,0000.25,0000.51,0000.03,0000.17,-000.20,-000.27,-000.50,-000.19,-000.50,19.0,25.7,04.0,02.6,0673.0,31.0
2021-08-04T00:24:00Z,00000200,00000000,0000.22,0000.71,0000.25,0000.06,0000.12,0000.20,-000.44,-000.23,-000.29,19.0,25.6,03.7,02.5,0673.0,31.0
2021-08-04T00:25:00Z,00000200,00000000,0000.46,0000.92,0000.42,0000.66,0000.38,-000.03,0001.17,0000.67,0000.63,18.9,25.6,04.0,02.7,0673.0,31.0
2021-08-04T00:26:00Z,00000200,00000000,0000.97,0000.71,0000.14,0000.23,0000.24,0000.16,-000.93,-000.60,-000.61,19.0,25.6,03.7,02.5,0673.0,31.0
2021-08-04T00:27:00Z,00000200,00000000,0000.75,0000.31,0000.18,0000.53,0000.33,0000.46,0000.25,0000.21,0000.25,18.9,25.6,03.4,02.3,0672.9,31.0
2021-08-04T00:28:00Z,00000200,00000000,0000.38,0000.10,-000.01,0000.18,0000.24,0000.19,0000.38,0000.24,0000.02,18.9,25.6,03.6,02.4,0672.9,31.0
2021-08-04T00:29:00Z,00000200,00000000,0000.41,0000.13,0000.10,0000.06,0000.11,-000.02,0000.87,0000.70,0000.82,18.9,25.6,04.0,02.7,0672.9,31.0
2021-08-04T00:30:00Z,00000200,00000000,0000.13,0000.08,0000.01,0000.33,0000.35,0000.01,0000.36,0000.66,0000.56,18.9,25.6,04.8,03.2,0672.9,31.0
2021-08-04T00:31:00Z,00000200,00000000,0000.67,0000.19,-000.26,0000.04,0000.23,-000.17,0003.03,0003.02,0003.46,18.9,25.6,04.5,03.0,0672.9,31.0
2021-08-04T00:32:00Z,00000200,00000000,0000.83,0000.06,-000.05,0000.09,0000.24,-000.11,-002.02,-002.17,-002.49,18.9,25.5,05.2,03.5,0672.9,31.0
2021-08-04T00:33:00Z,00000200,00000000,0000.44,0000.65,0000.30,0000.32,0000.27,0000.23,0000.61,0000.36,0000.63,18.9,25.5,05.0,03.3,0672.9,31.0
2021-08-04T00:34:00Z,00000200,00000000,-000.16,0000.25,0000.02,0000.01,0000.25,0000.14,-000.23,0000.13,-000.00,18.9,25.5,04.7,03.1,0672.9,31.0
2021-08-04T00:35:00Z,00000200,00000000,0000.40,0000.27,0000.17,0000.06,0000.13,0000.11,-000.51,-000.09,-000.47,18.9,25.5,04.5,03.0,0672.8,31.0
2021-08-04T00:36:00Z,00000200,00000000,-000.11,-000.14,-000.15,0000.35,0000.42,-000.34,0000.22,-000.68,-000.09,18.9,25.5,04.3,02.9,0672.8,31.0
2021-08-04T00:37:00Z,00000200,00000000,0000.19,0000.36,-000.12,-000.25,0000.13,0000.03,0000.08,0000.44,-000.32,18.8,25.5,04.5,03.0,0672.8,31.0
2021-08-04T00:38:00Z,00000200,00000000,0000.23,-000.13,-000.16,0000.50,0000.08,-000.07,-000.64,-000.66,-000.45,18.8,25.5,04.0,02.6,0672.7,31.0
2021-08-04T00:39:00Z,00000200,00000000,-000.28,-000.02,0000.03,-000.04,0000.13,0000.11,0003.29,0003.55,0004.11,18.8,25.5,03.7,02.5,0672.7,31.0
2021-08-04T00:40:00Z,00000200,00000000,-000.64,-000.12,-000.09,-000.07,0000.27,-000.02,-002.94,-003.21,-003.43,18.8,25.5,04.4,02.9,0672.7,31.0
2021-08-04T00:41:00Z,00000200,00000000,-000.21,0000.14,0000.06,0000.00,0000.20,-000.01,-000.15,-000.10,-000.64,18.8,25.4,03.7,02.5,0672.6,31.0
2021-08-04T00:42:00Z,00000200,00000000,0000.26,0000.07,-000.04,-000.08,0000.04,0000.08,0000.60,0000.63,0000.75,18.8,25.4,03.6,02.4,0672.6,31.0
2021-08-04T00:43:00Z,00000200,00000000,0000.46,0000.51,0000.19,0000.08,0000.27,-000.01,0002.83,0002.83,0003.05,18.7,25.4,05.4,03.6,0672.6,31.0
2021-08-04T00:44:00Z,00000200,00000000,-000.19,-000.00,-000.11,0000.08,0000.11,0000.16,-001.31,-001.52,-001.44,18.8,25.4,04.8,03.2,0672.6,31.0
2021-08-04T00:45:00Z,00000200,00000000,0000.11,0000.16,0000.12,0000.24,0000.28,0000.14,0000.13,0000.03,-000.59,18.8,25.4,04.2,02.8,0672.6,31.0
2021-08-04T00:46:00Z,00000200,00000000,-000.19,0000.11,0000.32,0000.01,-000.02,-000.09,-000.45,-000.33,0000.12,18.8,25.4,03.8,02.5,0672.6,31.0
2021-08-04T00:47:00Z,00000200,00000000,0000.13,0000.37,-000.09,-000.13,0000.04,-000.05,-000.68,-000.87,-001.04,18.9,25.4,03.5,02.4,0672.6,31.0
2021-08-04T00:48:00Z,00000200,00000000,0000.28,0000.37,0000.23,0000.20,0000.09,0000.37,0000.84,0000.82,0001.14,19.0,25.5,03.4,02.3,0672.6,31.1
2021-08-04T00:49:00Z,00000200,00000000,0000.45,0000.47,-000.21,0000.18,0000.28,-000.32,-001.68,-001.49,-001.65,19.1,25.5,03.3,02.2,0672.6,31.0
2021-08-04T00:50:00Z,00000200,00000000,-000.02,0000.43,0000.10,0000.16,0000.16,0000.40,0000.95,0000.84,0000.98,19.1,25.5,03.4,02.3,0672.6,31.0
2021-08-04T00:51:00Z,00000200,00000000,0000.30,0000.11,0000.05,-000.07,0000.46,0000.05,-000.39,-000.05,-000.48,19.0,25.5,02.9,02.0,0672.6,31.0
2021-08-04T00:52:00Z,00000200,00000000,0000.30,0000.44,-000.21,-000.23,0000.23,-000.01,0000.06,-000.29,-000.06,19.0,25.5,02.9,02.0,0672.6,31.0
2021-08-04T00:53:00Z,00000200,00000000,0000.34,0000.42,0000.38,0000.10,0000.18,0000.51,0000.01,-000.49,0000.03,19.0,25.5,02.7,01.8,0672.6,31.0
2021-08-04T00:54:00Z,00000200,00000000,0000.03,-000.10,0000.15,-000.28,0000.30,0000.01,-000.44,0000.16,-000.21,18.9,25.5,02.7,01.8,0672.6,31.0
2021-08-04T00:55:00Z,00000200,00000000,-001.36,0000.54,0000.27,0000.03,0000.10,0000.12,-000.04,0000.52,0000.23,18.9,25.5,02.7,01.8,0672.6,31.0
2021-08-04T00:56:00Z,00000200,00000000,-000.31,0000.22,0000.34,-000.32,-000.00,0000.01,0001.14,0000.45,0000.32,18.9,25.4,02.9,02.0,0672.6,31.0
2021-08-04T00:57:00Z,00000200,40000000,,,,,,,0000.89,0001.04,0001.40,18.9,25.5,03.1,02.1,0672.7,31.0
2021-08-04T00:58:00Z,00000200,60000000,,,,,,,-001.24,-000.74,-000.86,18.6,25.6,03.4,02.2,0671.6,31.0
2021-08-04T00:59:00Z,00000200,20000000,,,,,,,-000.47,-000.71,-000.56,18.6,25.7,03.3,02.1,0671.6,31.0
